TimePST,TemperatureF,Dew PointF,Humidity,Sea Level PressureIn,VisibilityMPH,Wind Direction,Wind SpeedMPH,Gust SpeedMPH,PrecipitationIn,Events,Conditions,WindDirDegrees,DateUTC
12:56 AM,10.0,6.1,84,29.85,10.0,Calm,Calm,-,N/A,,Clear,0,2012-12-14 08:56:00
1:56 AM,9.0,6.1,88,29.85,10.0,Calm,Calm,-,N/A,,Partly Cloudy,0,2012-12-14 09:56:00
2:56 AM,12.0,9.0,88,29.84,10.0,Calm,Calm,-,N/A,,Overcast,0,2012-12-14 10:56:00
3:56 AM,15.1,12.0,88,29.81,10.0,Calm,Calm,-,N/A,,Overcast,0,2012-12-14 11:56:00
4:56 AM,18.0,15.1,88,29.81,10.0,Calm,Calm,-,N/A,,Overcast,0,2012-12-14 12:56:00
5:56 AM,19.0,17.1,92,29.81,10.0,Calm,Calm,-,N/A,,Overcast,0,2012-12-14 13:56:00
6:56 AM,19.9,18.0,92,29.80,10.0,Calm,Calm,-,N/A,,Overcast,0,2012-12-14 14:56:00
7:56 AM,19.9,19.0,96,29.83,10.0,Calm,Calm,-,N/A,,Overcast,0,2012-12-14 15:56:00
8:56 AM,21.0,19.0,92,29.84,10.0,Calm,Calm,-,N/A,,Overcast,0,2012-12-14 16:56:00
9:56 AM,24.1,24.1,100,29.84,10.0,Calm,Calm,-,N/A,,Overcast,0,2012-12-14 17:56:00
10:56 AM,27.0,26.1,96,29.84,10.0,Calm,Calm,-,N/A,,Overcast,0,2012-12-14 18:56:00
11:56 AM,28.9,27.0,92,29.83,2.5,Calm,Calm,-,0.00,Snow,Light Snow,0,2012-12-14 19:56:00
12:07 PM,28.4,26.6,93,29.71,2.5,Calm,Calm,-,0.00,Snow,Light Snow,0,2012-12-14 20:07:00
12:17 PM,30.2,26.6,86,29.71,3.0,Calm,Calm,-,0.00,Snow,Light Snow,0,2012-12-14 20:17:00
12:56 PM,30.0,27.0,88,29.83,3.0,Calm,Calm,-,0.00,Snow,Light Snow,0,2012-12-14 20:56:00
1:33 PM,30.2,26.6,86,29.72,5.0,Calm,Calm,-,0.01,Snow,Light Snow,0,2012-12-14 21:33:00
1:49 PM,30.2,26.6,86,29.72,2.5,Calm,Calm,-,0.01,Snow,Light Snow,0,2012-12-14 21:49:00
1:56 PM,30.0,27.0,88,29.84,1.8,Calm,Calm,-,0.01,Snow,Light Snow,0,2012-12-14 21:56:00
2:21 PM,28.4,26.6,93,29.73,0.8,Calm,Calm,-,0.00,Snow,Light Snow,0,2012-12-14 22:21:00
2:32 PM,30.2,26.6,86,29.73,1.2,Calm,Calm,-,0.01,Snow,Light Snow,0,2012-12-14 22:32:00
2:56 PM,28.9,27.0,92,29.86,0.8,Calm,Calm,-,0.01,Snow,Light Snow,0,2012-12-14 22:56:00
3:17 PM,28.4,26.6,93,29.75,1.0,Calm,Calm,-,0.01,Snow,Light Snow,0,2012-12-14 23:17:00
3:56 PM,28.9,27.0,92,29.87,1.8,Calm,Calm,-,0.01,Snow,Light Snow,0,2012-12-14 23:56:00
4:12 PM,28.4,26.6,93,29.77,1.2,Calm,Calm,-,0.01,Snow,Light Snow,0,2012-12-15 00:12:00
4:56 PM,28.9,27.0,92,29.88,1.5,Calm,Calm,-,0.02,Snow,Light Snow,0,2012-12-15 00:56:00
5:03 PM,28.4,26.6,93,29.78,1.2,Calm,Calm,-,0.00,Snow,Light Snow,0,2012-12-15 01:03:00
5:20 PM,28.4,26.6,93,29.79,1.2,Calm,Calm,-,0.00,Snow,Light Snow,0,2012-12-15 01:20:00
5:36 PM,28.4,26.6,93,29.79,1.0,Variable,4.6,-,0.00,Snow,Light Snow,0,2012-12-15 01:36:00
5:56 PM,28.0,27.0,96,29.90,1.8,Calm,Calm,-,0.00,Snow,Light Snow,0,2012-12-15 01:56:00
6:04 PM,28.4,26.6,93,29.80,2.5,Calm,Calm,-,0.01,Snow,Light Snow,0,2012-12-15 02:04:00
6:09 PM,28.4,26.6,93,29.80,1.8,Calm,Calm,-,0.01,Snow,Light Snow,0,2012-12-15 02:09:00
6:25 PM,28.4,26.6,93,29.80,1.0,Calm,Calm,-,0.01,Snow,Light Snow,0,2012-12-15 02:25:00
6:38 PM,28.4,26.6,93,29.80,1.2,Calm,Calm,-,0.01,Snow,Light Snow,0,2012-12-15 02:38:00
6:56 PM,28.9,27.0,92,29.90,1.2,Calm,Calm,-,0.02,Snow,Light Snow,0,2012-12-15 02:56:00
7:10 PM,28.4,26.6,93,29.80,2.5,Calm,Calm,-,0.00,Snow,Light Snow,0,2012-12-15 03:10:00
7:26 PM,28.4,28.4,100,29.81,2.5,Calm,Calm,-,0.00,Snow,Light Snow,0,2012-12-15 03:26:00
7:35 PM,28.4,28.4,100,29.81,1.5,Calm,Calm,-,0.00,Snow,Light Snow,0,2012-12-15 03:35:00
7:42 PM,28.4,28.4,100,29.81,2.0,Calm,Calm,-,0.00,Snow,Light Snow,0,2012-12-15 03:42:00
7:56 PM,28.9,27.0,92,29.91,1.8,Calm,Calm,-,0.00,Snow,Light Snow,0,2012-12-15 03:56:00
8:15 PM,28.4,26.6,93,29.81,1.5,Calm,Calm,-,0.01,Snow,Light Snow,0,2012-12-15 04:15:00
8:42 PM,28.4,26.6,93,29.82,2.5,Calm,Calm,-,0.01,,Overcast,0,2012-12-15 04:42:00
8:57 PM,28.4,26.6,93,29.82,1.2,Calm,Calm,-,0.00,Snow,Light Snow,0,2012-12-15 04:57:00
9:35 PM,28.4,26.6,93,29.83,1.0,Calm,Calm,-,0.01,Snow,Light Snow,0,2012-12-15 05:35:00
9:44 PM,28.4,26.6,93,29.83,0.8,Calm,Calm,-,0.01,Snow,Light Snow,0,2012-12-15 05:44:00
9:56 PM,28.9,27.0,92,29.92,1.0,Calm,Calm,-,0.02,Snow,Light Snow,0,2012-12-15 05:56:00
10:05 PM,28.4,26.6,93,29.83,0.8,Calm,Calm,-,0.01,Snow,Light Snow,0,2012-12-15 06:05:00
10:15 PM,28.4,26.6,93,29.83,1.2,Variable,3.5,-,0.01,Snow,Light Snow,0,2012-12-15 06:15:00
10:27 PM,28.4,26.6,93,29.84,3.0,Calm,Calm,-,0.01,Snow,Light Snow,0,2012-12-15 06:27:00
10:35 PM,28.4,26.6,93,29.84,1.8,Variable,3.5,-,0.01,Snow,Light Snow,0,2012-12-15 06:35:00
10:51 PM,28.4,26.6,93,29.84,3.0,Calm,Calm,-,0.01,,Overcast,0,2012-12-15 06:51:00
10:56 PM,28.0,27.0,96,29.92,5.0,Calm,Calm,-,0.01,,Overcast,0,2012-12-15 06:56:00
11:44 PM,28.4,26.6,93,29.85,5.0,Calm,Calm,-,N/A,,Overcast,0,2012-12-15 07:44:00
11:56 PM,28.9,27.0,92,29.93,10.0,Calm,Calm,-,N/A,,Overcast,0,2012-12-15 07:56:00